Theta_e
320 320 318 317 316 314 313 313 312 312 312 312 311 311 311 311 312 306 298 303 308 314 315 306 305 304 302 300 303 301 293 290 292 293 296 302 301 305 306 305 305 307 306 310 312
321 320 318 318 317 315 313 312 312 312 311 311 311 310 310 312 305 300 307 311 319 318 305 301 298 301 300 297 298 299 292 291 296 298 298 300 300 301 301 302 303 304 308 310 310
321 321 320 319 317 316 314 313 312 311 311 310 309 309 311 310 295 296 319 315 315 315 305 304 300 298 294 297 295 295 291 295 298 300 301 300 299 301 300 298 302 302 305 307 308
321 320 320 319 317 316 314 313 311 311 309 309 309 309 311 304 293 302 321 319 317 315 305 300 298 294 292 292 296 291 295 296 297 300 300 298 301 298 299 301 305 306 306 305 306
320 319 319 319 317 316 314 313 311 310 308 308 308 309 304 291 292 302 319 322 315 311 302 298 296 293 290 290 292 292 295 297 298 298 298 298 297 298 298 302 304 304 303 304 305
319 319 318 318 317 315 314 312 310 308 307 307 307 308 300 285 299 305 305 312 309 304 301 299 296 296 294 295 293 295 294 295 296 296 296 295 297 297 299 302 301 301 302 303 303
319 318 317 317 316 314 313 312 308 307 307 307 307 305 298 290 301 302 303 307 305 303 300 301 302 299 297 292 296 296 292 295 296 297 296 297 293 293 300 300 298 298 300 301 303
320 318 316 316 314 313 311 309 306 306 307 307 307 304 292 303 306 304 303 302 303 304 302 303 303 299 294 296 293 291 291 288 294 295 296 296 290 296 297 296 297 299 300 300 302
319 318 316 314 312 311 309 306 306 306 306 306 303 300 291 305 298 304 303 298 300 301 301 302 299 295 294 289 287 288 285 287 290 295 294 293 290 295 298 297 295 298 299 300 300
318 318 315 313 311 310 307 304 303 305 305 305 304 293 296 294 301 305 305 303 298 297 296 295 294 290 289 287 282 283 285 287 287 292 292 290 289 292 295 295 295 297 299 299 299
318 317 314 312 310 306 301 299 297 295 298 293 294 291 293 302 305 299 303 301 299 297 290 292 288 285 288 288 288 288 286 285 288 291 288 289 290 292 295 294 295 296 297 297 299
317 316 314 311 308 305 298 291 297 296 289 296 296 296 299 302 296 299 302 297 294 290 292 289 285 290 291 289 287 286 284 285 288 290 288 289 289 293 294 294 296 296 298 305 306
316 315 312 309 306 300 296 293 299 301 288 290 294 294 295 298 292 296 297 295 292 289 289 288 290 292 289 287 286 286 285 286 286 290 291 288 288 290 294 294 300 305 305 304 302
316 313 309 306 299 297 294 298 299 298 281 286 287 293 297 298 291 298 299 295 290 288 287 288 292 290 288 288 289 284 289 288 287 286 282 289 281 289 292 293 299 302 301 300 300
313 309 306 307 295 293 297 298 296 297 274 288 288 299 299 293 293 294 299 295 289 288 288 286 287 286 286 287 289 287 290 288 288 286 285 285 283 287 290 290 296 300 300 300 298
311 307 305 299 299 300 302 305 299 281 274 284 291 289 291 294 293 295 295 298 295 289 290 289 293 291 290 291 291 291 289 288 287 286 280 285 284 285 288 290 297 300 299 296 296
308 305 302 301 294 301 301 296 279 276 287 286 287 290 289 288 290 291 290 289 287 284 284 287 287 291 292 289 290 289 286 280 278 279 278 285 283 286 292 298 298 297 296 295 294
305 302 300 301 301 302 296 285 275 281 282 288 288 289 286 285 285 285 288 286 289 288 284 280 279 287 290 287 284 285 286 281 274 276 279 285 281 286 297 298 298 296 295 294 294
301 296 296 297 301 300 290 279 281 282 285 284 285 283 282 284 285 287 286 285 286 287 283 281 281 288 288 288 287 285 284 287 281 283 279 282 285 293 296 295 296 294 292 290 290
293 291 293 298 298 296 286 281 283 286 286 286 282 284 280 282 282 284 285 287 285 288 289 285 279 285 287 287 287 285 286 279 283 274 273 279 281 284 289 291 293 291 289 288 289
292 287 292 300 298 289 281 282 286 288 288 285 283 282 282 281 282 281 283 285 287 287 288 285 282 281 284 282 280 281 280 282 284 282 275 274 279 291 291 289 289 288 287 286 287
289 281 295 299 286 287 283 286 289 286 289 287 287 285 284 285 281 281 282 285 289 288 283 285 282 277 278 284 286 284 283 283 277 274 279 279 278 293 291 290 289 287 287 287 287
286 285 296 295 281 282 287 286 287 285 285 285 285 286 285 282 279 283 285 288 289 287 285 286 280 274 276 281 283 282 283 284 283 281 276 274 278 293 292 289 287 286 286 286 286
288 282 288 291 290 285 284 283 282 287 285 286 284 285 284 282 283 281 283 284 287 289 291 288 281 277 273 277 281 278 280 282 280 275 276 277 280 285 287 287 286 285 285 284 284
287 283 287 281 284 285 286 285 282 281 285 285 282 283 282 279 279 279 281 282 285 290 286 285 278 280 280 281 281 280 280 280 279 279 275 278 278 282 285 286 284 284 284 283 282
285 285 286 285 287 284 284 282 281 281 283 281 281 281 282 279 280 278 280 281 280 286 284 284 278 279 277 280 280 277 279 279 279 279 279 279 279 286 286 285 283 282 282 281 280
289 290 288 285 283 282 282 283 282 284 285 284 283 282 281 281 284 284 285 285 284 283 281 281 279 276 271 277 276 272 277 279 280 283 281 276 282 286 282 281 281 280 280 280 280
Wind_Speed
14 13 12 11 8 8 6 6 6 8 10 13 14 15 18 18 16 2 6 5 4 2 6 5 3 5 3 4 3 3 5 7 8 8 5 2 1 2 1 6 3 2 5 11 11
15 15 14 12 8 7 6 6 5 7 9 12 16 17 17 17 4 7 9 3 3 6 4 7 6 6 4 4 4 5 5 11 6 7 8 3 4 5 6 9 10 13 7 10 9
17 16 14 12 9 8 7 5 4 6 9 12 14 16 18 14 6 3 2 9 7 2 2 2 5 4 4 3 7 6 8 6 5 11 7 6 7 4 9 12 12 14 16 12 11
17 17 15 13 11 9 7 5 3 5 8 10 13 16 18 3 8 2 5 10 9 6 3 3 2 5 5 8 5 6 7 7 4 8 6 10 15 12 12 16 15 15 13 11 12
19 18 16 15 14 11 8 6 3 5 6 8 10 12 6 4 11 4 5 10 8 7 8 7 5 4 5 4 4 7 6 7 10 9 10 10 14 16 10 13 12 13 11 11 13
20 19 18 17 15 11 8 5 3 4 7 8 7 8 2 8 1 5 3 6 6 5 6 6 6 6 3 4 5 2 6 7 6 9 6 8 10 6 11 9 8 7 11 10 8
21 21 19 18 15 12 7 4 2 5 8 8 6 2 4 19 1 5 5 3 5 7 6 5 3 4 4 3 3 5 7 6 9 9 8 3 8 10 16 9 7 7 8 10 10
23 21 19 19 15 11 7 3 3 6 10 9 5 3 11 5 5 7 3 4 5 7 2 2 2 2 2 4 1 4 2 5 1 3 2 7 9 8 3 4 14 14 11 9 11
25 21 20 19 17 13 9 4 5 8 10 5 3 3 12 7 5 8 12 8 8 5 2 3 5 4 3 2 3 0 8 5 6 3 1 4 4 4 13 14 11 13 13 11 11
25 22 22 21 17 14 10 5 5 3 2 4 4 4 6 5 3 2 6 6 4 9 3 4 4 5 4 7 8 5 5 4 5 3 9 15 16 16 16 11 14 13 13 12 11
23 22 22 22 21 19 10 3 2 2 5 11 6 6 3 5 3 4 5 8 4 4 8 5 7 13 18 11 8 6 7 13 11 13 6 12 14 14 15 10 14 13 9 7 6
21 21 25 24 25 19 8 4 3 0 8 18 19 16 11 2 5 6 10 7 6 9 6 4 12 13 8 11 8 8 9 11 9 12 6 12 18 17 16 10 10 5 4 5 7
23 23 24 24 24 10 6 6 3 4 2 10 9 11 10 15 12 9 13 7 7 10 11 12 4 10 9 7 8 10 9 8 11 9 6 8 11 4 3 5 9 7 5 7 10
21 26 30 27 10 8 3 8 6 3 3 9 7 10 8 9 11 19 13 8 6 15 8 9 10 7 6 7 9 11 11 14 13 4 6 5 9 7 4 6 5 5 6 7 10
28 31 33 17 14 8 4 6 7 1 2 1 5 2 8 14 1 9 5 3 11 8 7 7 7 9 14 14 10 8 7 11 10 7 3 5 7 3 2 3 4 2 5 8 9
29 34 29 10 4 7 7 11 4 2 7 3 6 7 8 8 3 5 11 3 3 5 3 3 1 4 5 4 7 1 3 3 1 4 7 12 10 4 4 3 0 1 6 9 12
34 33 14 9 10 12 12 7 6 6 5 6 6 8 7 7 3 3 11 9 6 6 4 1 1 1 1 5 3 1 4 3 4 4 4 2 9 10 1 3 1 6 7 9 11
31 23 9 3 11 12 11 4 4 5 6 4 2 8 4 4 1 2 8 7 4 3 4 6 4 1 3 2 2 2 3 4 5 4 1 4 8 1 8 7 9 8 6 11 14
28 7 5 4 8 11 7 4 7 6 3 2 3 4 1 3 4 4 3 4 2 4 4 4 3 1 4 3 2 2 3 2 1 1 5 6 3 4 4 8 8 9 12 14 14
8 5 3 7 3 5 3 4 5 3 2 2 4 1 4 1 3 3 3 1 4 1 1 5 4 2 2 1 7 2 2 2 1 4 7 5 7 4 3 8 10 11 11 12 14
8 5 3 5 3 3 3 5 3 2 2 2 3 3 5 3 3 2 4 2 2 3 2 2 1 2 3 1 2 2 1 1 1 3 4 6 4 4 6 6 8 9 10 12 14
4 4 6 6 4 2 4 4 4 3 3 1 3 6 4 6 6 4 4 2 2 3 4 2 3 2 1 5 3 4 3 3 4 4 3 4 7 8 5 8 7 7 9 10 12
4 4 3 3 3 4 5 3 2 1 3 2 4 3 2 4 4 4 4 3 3 3 6 6 2 4 2 1 1 4 4 4 3 2 7 7 4 5 7 6 7 7 8 9 11
4 5 2 1 1 7 8 8 7 2 2 4 4 2 4 3 2 5 5 2 2 2 6 3 4 4 4 3 3 3 4 5 4 5 7 14 18 15 14 2 5 6 7 8 10
1 2 5 8 4 5 4 6 6 4 3 3 3 2 3 4 3 4 3 2 4 3 3 2 5 5 5 4 4 9 11 13 16 15 13 14 20 14 12 1 6 4 6 7 9
3 5 2 8 4 7 4 4 6 4 2 2 6 4 3 4 2 4 5 2 3 2 2 0 3 2 4 9 10 15 16 18 19 20 20 24 25 16 5 8 7 5 6 6 9
1 1 4 6 5 5 4 4 6 7 5 5 8 5 6 3 2 2 2 3 3 5 4 4 5 4 3 1 8 13 8 8 9 11 14 17 16 7 7 9 6 6 4 6 9
Wind_Direction
233 233 235 241 247 252 273 298 313 326 330 328 326 324 322 323 315 360 251 245 229 230 163 138 106 115 103 114 115 143 204 223 232 195 248 230 3 310 336 288 314 284 306 297 312
236 237 240 241 232 238 250 275 302 323 327 328 324 321 320 322 301 280 246 210 85 146 156 164 148 138 111 138 162 203 217 216 208 217 246 279 276 311 291 298 293 297 273 276 304
234 233 236 237 225 222 235 252 286 315 322 327 323 323 319 324 289 231 46 196 214 264 65 142 132 136 163 155 182 180 237 209 222 231 246 264 266 268 277 278 271 286 293 305 303
231 228 226 228 225 224 228 224 247 304 320 323 324 325 321 299 295 172 101 153 173 152 131 110 115 152 186 201 192 227 231 224 224 233 233 250 278 264 258 261 262 275 280 289 295
229 223 221 220 219 213 210 206 230 290 307 312 325 327 340 295 249 177 104 139 153 158 176 159 169 161 203 212 179 234 250 240 241 257 257 263 251 261 262 254 262 272 288 278 294
228 222 215 215 215 207 199 192 216 281 297 303 323 324 290 265 295 81 122 150 183 185 184 163 193 198 217 232 211 211 227 257 255 246 241 238 254 200 262 257 254 269 279 289 288
228 221 213 208 202 194 192 192 237 289 290 295 302 265 248 245 56 311 325 204 188 188 164 197 187 191 159 249 277 275 283 278 236 236 246 220 244 230 243 287 273 273 275 285 284
231 221 210 202 192 175 172 166 263 281 288 295 272 213 254 255 279 275 198 257 219 212 173 163 153 202 212 303 324 283 237 272 277 184 264 189 268 252 135 350 312 300 295 287 280
227 215 202 191 174 165 160 143 266 288 282 256 256 214 260 296 254 252 187 203 195 214 230 140 156 190 168 199 284 270 266 242 287 235 242 242 286 244 300 309 291 287 293 289 299
240 212 191 177 166 153 131 90 306 292 262 132 252 264 250 244 230 157 177 187 168 161 114 182 164 179 149 189 235 211 231 240 254 271 285 291 277 264 270 277 277 277 283 293 308
230 199 173 170 154 138 119 115 172 110 240 202 204 254 265 288 267 217 160 154 168 147 183 199 202 204 206 197 220 246 260 269 266 265 293 274 274 267 264 259 260 268 281 319 334
218 198 179 161 147 143 133 191 132 131 264 227 246 247 260 346 299 240 146 164 171 189 152 169 236 216 207 200 209 227 251 266 275 271 209 280 285 274 255 248 246 288 23 34 359
212 183 159 144 134 133 151 180 210 81 341 282 213 234 223 200 220 234 178 166 173 184 192 211 212 189 182 180 206 235 238 251 264 305 275 294 275 241 215 189 110 90 70 38 13
188 163 143 133 115 131 184 201 219 297 349 258 214 254 189 150 238 209 196 159 182 199 181 236 230 190 175 205 210 253 214 235 254 273 279 358 295 245 236 127 97 83 47 25 7
158 149 144 149 132 158 138 158 129 10 235 121 164 141 164 188 237 206 164 107 178 170 166 218 179 184 219 232 210 235 205 213 228 232 268 241 261 98 192 349 148 88 30 17 9
153 146 133 118 107 118 130 106 96 146 238 292 156 172 160 231 286 118 179 49 141 136 246 220 225 167 182 187 183 196 200 167 135 216 247 227 213 304 181 150 200 93 34 13 1
149 147 140 142 144 153 147 123 96 218 358 173 183 177 184 173 251 129 159 160 163 168 189 303 118 74 66 148 158 163 148 219 216 199 261 180 211 255 342 113 40 56 25 7 359
137 126 113 78 122 134 111 121 164 196 245 213 171 142 165 118 309 92 140 165 58 111 138 179 195 321 6 73 158 182 196 214 237 212 138 218 246 193 82 98 102 76 27 7 359
117 88 87 108 131 149 118 172 194 210 250 220 128 145 128 117 132 94 73 109 80 31 181 166 181 327 47 8 320 146 149 43 295 310 261 223 253 142 75 43 50 29 22 7 353
111 86 129 128 86 166 110 186 211 196 279 238 172 328 141 109 125 119 131 20 116 99 21 190 155 340 308 121 30 67 138 143 114 238 244 245 242 217 14 359 10 10 17 357 349
72 101 211 131 150 153 170 198 224 32 211 291 125 117 98 71 46 81 83 93 91 68 97 127 1 151 250 124 136 58 165 155 227 202 253 285 236 78 58 24 2 8 7 357 354
105 90 189 167 139 192 168 152 340 22 352 276 93 66 64 36 13 50 96 95 136 138 109 44 98 186 291 336 222 159 164 134 178 205 247 288 262 92 87 75 50 16 4 3 359
80 98 183 227 159 142 151 158 217 266 31 34 58 67 97 124 168 153 109 25 128 111 156 169 162 148 120 201 112 149 141 120 108 201 230 240 247 150 107 69 65 12 12 2 357
124 136 75 96 273 166 145 190 159 163 113 76 98 147 124 130 14 134 118 66 35 100 98 100 177 231 214 120 109 188 205 204 183 225 256 239 280 259 295 318 64 15 21 5 349
103 180 163 180 214 186 178 162 136 128 72 52 75 69 137 128 113 112 104 103 41 93 60 134 205 211 249 271 225 250 251 243 241 242 245 261 255 272 290 269 85 40 25 11 354
136 139 96 160 143 167 208 152 134 110 81 90 123 92 90 110 76 157 128 165 170 136 139 54 154 168 250 244 253 268 262 253 254 260 261 259 264 267 114 119 83 46 31 10 8
116 303 127 147 144 138 185 143 138 125 46 65 127 106 87 92 88 116 167 180 162 173 160 160 159 166 233 204 302 277 251 218 229 259 258 248 250 147 138 100 81 59 26 26 24